Welcome to our Virtual Airline
Sign-in:

Flight MFC108101

  • Submitted By: James Smith
  • Departure Airport: Karluk (PAKY)
  • Arrival Airport: Moser Bay (KMY)
  • Aircraft: CESSNA 170 (N170MM)
  • Flight Time: 00.40.58
  • Date Submitted: 22/03/04
  • Route: STOP KOY, PAKH
  • Status: Accepted
Flight Details
Gross Revenue:
(2 load / $ 44.00 per unit
$ 88.00
Fuel Cost:
(13.6078 fuel used @ 5.1 / unit)
$ 69.40

Additional Log Information:

View Log

[14:28] ----- Flight Opened -----
[14:28] Cigar Box - 1.1.4.0
[14:28] FS:
[14:28] FSUIPC: v7.213
[14:28] Flight Number: MFC108101
[14:28] FS Aircraft: Cessna Super 170B Float Green
[14:28] FS Model: TT:ATCCOM.AC_MODEL 170.
[14:28] FS Type: TT:ATCCOM.ATC_NAME CESS
[14:28] Departure: PAKY
[14:28] Arrival: KMY
[14:28] Flight Level: 3500
[14:28] Flight Type: H
[14:28] Passengers: 2
[14:28] FOB: 108 lbs
[14:28] Gate: n/a
[14:28] NOTE: Parking Brake Ignored
[14:28] Crash Detection: Disabled
[14:28] Crash Detection Aircraft: Disabled
[14:28] Engines: 1 Piston
[14:28] NOTE: Boarding has started
[14:28] Landing Gear: Retracted
[14:28] Light Data: Navigation ON
[14:28] Light Data: Beacon ON
[14:28] Light Data: Landing lights ON
[14:28] Light Data: Strobe lights ON
[14:28] Light Data: Instrument lights ON
[14:28] Main Door Closed
[14:28] COM1: 122.80
[14:28] COM2: 124.85
[14:28] Transponder: 7000
[14:28] NAV1: 110.50
[14:28] NAV2: 110.50
[14:28] ADF1: 890.0
[14:28] ADF2: 890.0
[14:28] Navigation Mode: NAV
[14:29] Engine 1: Started
[14:29] Light Data: Navigation OFF
[14:29] Light Data: Navigation ON
[14:30] Flaps: Position 1
[14:30] NOTE: Taxi started
[14:30] NOTE: ----- TAKE OFF -----
[14:30] GS: 56 knots
[14:30] TAS: 57 knots
[14:30] IAS: 51 knots
[14:30] VS: 25 fpm
[14:30] FOB: 107 lbs
[14:30] Heading: 105°
[14:30] Pitch: 4°
[14:30] Bank: 3°
[14:30] Aircraft Weight: 1892.90 lbs
[14:30] Nearest Airport: PAKY
[14:30] Distance: 0.09 miles
[14:30] Runway: 10 - PAKY
[14:30] Ground Surface: Asphalt
[14:30] Ground Condition: Normal
[14:30] NOTE: Weather Report
[14:30] Wind Heading: 196°
[14:30] Wind Speed: 3 knots
[14:30] OAT: 3° C
[14:30] TAT: 3° C
[14:30] Precipitation: None
[14:30] Dew Point: 0° C
[14:30] Visibility: 7 miles
[14:30] METAR:
[14:30] NOTE: Climb started
[14:30] View Mode: Virtual Cockpit
[14:30] Flaps: Position 0
[14:30] GS: 52 knots
[14:30] TAS: 52 knots
[14:30] IAS: 46 knots
[14:30] VS: 990 fpm
[14:31] Stall: Encountered
[14:31] GS: 42 knots
[14:31] TAS: 41 knots
[14:31] IAS: 33 knots
[14:31] VS: 1196 fpm
[14:31] Stall: Corrected
[14:31] GS: 42 knots
[14:31] TAS: 41 knots
[14:31] IAS: 31 knots
[14:31] VS: 725 fpm
[14:31] Stall: Encountered
[14:31] GS: 44 knots
[14:31] TAS: 42 knots
[14:31] IAS: 33 knots
[14:31] VS: 553 fpm
[14:31] Stall: Corrected
[14:31] GS: 46 knots
[14:31] TAS: 44 knots
[14:31] IAS: 35 knots
[14:31] VS: 449 fpm
[14:33] NOTE: TOC reached
[14:33] NOTE: Cruise started
[14:33] GS: 79 knots
[14:33] TAS: 76 knots
[14:33] IAS: 72 knots
[14:33] VS: 103 fpm
[14:33] FOB: 103 lbs
[14:33] Heading: 172°
[14:33] Pitch: 2°
[14:33] Bank: 2°
[14:33] Aircraft Weight: 1889.04 lbs
[14:33] NOTE: TOD reached
[14:33] NOTE: Descent started
[14:33] GS: 83 knots
[14:33] TAS: 81 knots
[14:33] IAS: 76 knots
[14:33] VS: -403 fpm
[14:33] FOB: 103 lbs
[14:33] Heading: 172°
[14:33] Pitch: 2°
[14:33] Bank: 2°
[14:33] Aircraft Weight: 1889.00 lbs
[14:33] NOTE: On approach
[14:44] COM1: 122.90
[14:44] Flaps: Position 1
[14:44] GS: 85 knots
[14:44] TAS: 86 knots
[14:44] IAS: 86 knots
[14:44] VS: -465 fpm
[14:44] Flaps: Position 2
[14:44] GS: 75 knots
[14:44] TAS: 76 knots
[14:44] IAS: 75 knots
[14:44] VS: 249 fpm
[14:45] Flaps: Position 3
[14:45] GS: 69 knots
[14:45] TAS: 71 knots
[14:45] IAS: 68 knots
[14:45] VS: -540 fpm
[14:47] NOTE: ----- LANDED -----
[14:47] Landing Rate: -315.27 fpm
[14:47] GS: 50 knots
[14:47] TAS: 50 knots
[14:47] IAS: 44 knots
[14:47] VS: -266 fpm
[14:47] FOB: 92 lbs
[14:47] Heading: 155°
[14:47] Pitch: 4°
[14:47] Bank: -3°
[14:47] Aircraft Weight: 1878.33 lbs
[14:47] Nearest Airport: KOY
[14:47] Distance: 0.32 miles
[14:47] Runway: ???
[14:47] Ground Surface: Grass
[14:47] Ground Condition: Normal
[14:47] NOTE: Weather Report
[14:47] Wind Heading: 243°
[14:47] Wind Speed: 1 knots
[14:47] OAT: 2° C
[14:47] TAT: 3° C
[14:47] Precipitation: None
[14:47] Dew Point: 0° C
[14:47] Visibility: 5 miles
[14:47] METAR: KMYV 041853Z AUTO VRB03KT 10SM CLR 16/07 A2991 RMK AO2 SLP130 T01610072 KMYP 041849Z AUTO 23017KT 10SM CLR M01/M07 A3012 RMK AO2 KMYZ 041855Z AUTO 15009G16KT 10SM CLR 18/05 A2987 RMK AO2 KMYR 041856Z 36008KT 10SM OVC024 15/04 A3039 RMK AO2 SLP289 T01500039 KMYJ 041915Z AUTO 13007KT 10SM CLR 13/04 A3012 RMK AO2 KMYL 041851Z AUTO 32006KT 10SM SCT110 01/M04 A2976 RMK AO2 SLP093 T00111039 KMYF 041853Z 14006KT 10SM BKN050 BKN070 15/11 A2996 RMK AO2 SLP143 T01500111
[14:47] View Mode: Virtual Cockpit
[14:47] NOTE: Taxi started
[14:48] Engine 1: Stopped
[14:49] FS: Paused
[14:49] FS: Unpaused
[14:49] Light Data: Instrument lights OFF
[14:49] Light Data: Instrument lights ON
[14:50] Flaps: Position 2
[14:50] Flaps: Position 1
[14:50] Engine 1: Started
[14:53] Flaps: Position 2
[14:53] GS: 66 knots
[14:53] TAS: 66 knots
[14:53] IAS: 63 knots
[14:53] VS: 0 fpm
[14:53] View Mode: Virtual Cockpit
[14:53] Flaps: Position 1
[14:53] GS: 60 knots
[14:53] TAS: 62 knots
[14:53] IAS: 59 knots
[14:53] VS: 1238 fpm
[14:53] Flaps: Position 0
[14:53] GS: 62 knots
[14:53] TAS: 64 knots
[14:53] IAS: 60 knots
[14:53] VS: 1355 fpm
[14:55] Stall: Encountered
[14:55] GS: 50 knots
[14:55] TAS: 45 knots
[14:55] IAS: 35 knots
[14:55] VS: 13 fpm
[14:55] Stall: Corrected
[14:55] GS: 52 knots
[14:55] TAS: 50 knots
[14:55] IAS: 40 knots
[14:55] VS: 489 fpm
[14:58] COM1: 122.80
[15:02] Flaps: Position 1
[15:02] GS: 91 knots
[15:02] TAS: 91 knots
[15:02] IAS: 92 knots
[15:02] VS: -911 fpm
[15:03] Flaps: Position 2
[15:03] GS: 79 knots
[15:03] TAS: 81 knots
[15:03] IAS: 81 knots
[15:03] VS: -1105 fpm
[15:03] Flaps: Position 3
[15:03] GS: 58 knots
[15:03] TAS: 62 knots
[15:03] IAS: 58 knots
[15:03] VS: -234 fpm
[15:04] NOTE: ----- LANDED -----
[15:04] Landing Rate: -148.41 fpm
[15:04] GS: 54 knots
[15:04] TAS: 52 knots
[15:04] IAS: 46 knots
[15:04] VS: -126 fpm
[15:04] FOB: 82 lbs
[15:04] Heading: 44°
[15:04] Pitch: 2°
[15:04] Bank: 0°
[15:04] Aircraft Weight: 1867.05 lbs
[15:04] Nearest Airport: AKK
[15:04] Distance: 0.14 miles
[15:04] Runway: 4 - AKK
[15:04] Ground Surface: Asphalt
[15:04] Ground Condition: Normal
[15:04] NOTE: Weather Report
[15:04] Wind Heading: 246°
[15:04] Wind Speed: 4 knots
[15:04] OAT: 3° C
[15:04] TAT: 4° C
[15:04] Precipitation: None
[15:04] Dew Point: 0° C
[15:04] Visibility: 7 miles
[15:04] METAR: KMYV 041853Z AUTO VRB03KT 10SM CLR 16/07 A2991 RMK AO2 SLP130 T01610072 KMYP 041849Z AUTO 23017KT 10SM CLR M01/M07 A3012 RMK AO2 KMYZ 041855Z AUTO 15009G16KT 10SM CLR 18/05 A2987 RMK AO2 KMYR 041856Z 36008KT 10SM OVC024 15/04 A3039 RMK AO2 SLP289 T01500039 KMYJ 041915Z AUTO 13007KT 10SM CLR 13/04 A3012 RMK AO2 KMYL 041851Z AUTO 32006KT 10SM SCT110 01/M04 A2976 RMK AO2 SLP093 T00111039 KMYF 041853Z 14006KT 10SM BKN050 BKN070 15/11 A2996 RMK AO2 SLP143 T01500111
[15:04] View Mode: Virtual Cockpit
[15:04] Flaps: Position 1
[15:04] Flaps: Position 0
[15:05] Engine 1: Stopped
[15:06] Engine 1: Started
[15:07] View Mode: Virtual Cockpit
[15:10] Flaps: Position 1
[15:10] GS: 87 knots
[15:10] TAS: 89 knots
[15:10] IAS: 89 knots
[15:10] VS: -1032 fpm
[15:11] Flaps: Position 2
[15:11] GS: 62 knots
[15:11] TAS: 63 knots
[15:11] IAS: 60 knots
[15:11] VS: -135 fpm
[15:12] Flaps: Position 3
[15:12] GS: 54 knots
[15:12] TAS: 54 knots
[15:12] IAS: 48 knots
[15:12] VS: -244 fpm
[15:12] NOTE: ----- LANDED -----
[15:12] Landing Rate: -259.90 fpm
[15:12] GS: 46 knots
[15:12] TAS: 47 knots
[15:12] IAS: 40 knots
[15:12] VS: -254 fpm
[15:12] FOB: 78 lbs
[15:12] Heading: 317°
[15:12] Pitch: 4°
[15:12] Bank: 4°
[15:12] Aircraft Weight: 1863.22 lbs
[15:12] Nearest Airport: KMY
[15:12] Distance: 0.33 miles
[15:12] Runway: ???
[15:12] Ground Surface: Water
[15:12] Ground Condition: Normal
[15:12] NOTE: Weather Report
[15:12] Wind Heading: 256°
[15:12] Wind Speed: 1 knots
[15:12] OAT: 3° C
[15:12] TAT: 3° C
[15:12] Precipitation: None
[15:12] Dew Point: 0° C
[15:12] Visibility: 8 miles
[15:12] METAR: KMYV 041853Z AUTO VRB03KT 10SM CLR 16/07 A2991 RMK AO2 SLP130 T01610072 KMYP 041849Z AUTO 23017KT 10SM CLR M01/M07 A3012 RMK AO2 KMYZ 041855Z AUTO 15009G16KT 10SM CLR 18/05 A2987 RMK AO2 KMYR 041856Z 36008KT 10SM OVC024 15/04 A3039 RMK AO2 SLP289 T01500039 KMYJ 041915Z AUTO 13007KT 10SM CLR 13/04 A3012 RMK AO2 KMYL 041851Z AUTO 32006KT 10SM SCT110 01/M04 A2976 RMK AO2 SLP093 T00111039 KMYF 041853Z 14006KT 10SM BKN050 BKN070 15/11 A2996 RMK AO2 SLP143 T01500111
[15:12] View Mode: Virtual Cockpit
[15:13] Flaps: Position 2
[15:13] Flaps: Position 0
[15:14] Engine 1: Stopped
[15:15] Gate: n/a
[15:15] NOTE: Flight Completed
[15:15] FS Aircraft: Cessna Super 170B Float Green
[15:15] FS Model: TT:ATCCOM.AC_MODEL 170.
[15:15] FS Type: TT:ATCCOM.ATC_NAME CESS
[15:15] FOB: 78 lbs
[15:15] Fuel Used: 30 lbs
[15:15] Flight Time: 00:40:58
[15:15] Flight Time (Dawn): 00:00:00
[15:15] Flight Time (Day): 00:40:58
[15:15] Flight Time (Dusk): 00:00:00
[15:15] Flight Time (Night): 00:00:00
[15:15] Total Landings: 3
[15:15] MaxSim Rate: 1x
[15:15] Cigar Box - 1.1.4.0
[15:15] ----- Flight Closed -----

Route Map